Time,TemperatureF,DewpointF,PressureIn,WindDirection,WindDirectionDegrees,WindSpeedMPH,WindSpeedGustMPH,Humidity,HourlyPrecipIn,Conditions,Clouds,dailyrainin,SoftwareType,DateUTC
2013-03-13 00:03:00,31.0,25.0,29.89,WSW,239,1.0,-999.0,77,-99.99,,,-99.99,,2013-03-13 04:03:00,
2013-03-13 00:13:00,31.0,25.0,29.89,WSW,239,1.0,-999.0,77,-99.99,,,-99.99,,2013-03-13 04:13:00,
2013-03-13 00:23:00,31.0,24.0,29.88,WSW,239,1.0,-999.0,76,-99.99,,,-99.99,,2013-03-13 04:23:00,
2013-03-13 00:32:00,31.0,24.0,29.88,SSW,193,1.0,-999.0,76,-99.99,,,-99.99,,2013-03-13 04:32:00,
2013-03-13 00:43:00,31.0,24.0,29.88,SSW,193,1.0,-999.0,76,-99.99,,,-99.99,,2013-03-13 04:43:00,
2013-03-13 00:53:00,31.0,24.0,29.88,SW,217,2.0,-999.0,74,-99.99,,,-99.99,,2013-03-13 04:53:00,
2013-03-13 01:02:00,31.0,24.0,29.88,SSW,213,2.0,-999.0,74,-99.99,,,-99.99,,2013-03-13 05:02:00,
2013-03-13 01:12:00,31.0,24.0,29.88,SSW,213,2.0,-999.0,74,-99.99,,,-99.99,,2013-03-13 05:12:00,
2013-03-13 01:22:00,31.0,24.0,29.87,SW,216,1.0,-999.0,74,-99.99,,,-99.99,,2013-03-13 05:22:00,
2013-03-13 01:32:00,31.0,23.0,29.87,SSW,205,3.0,-999.0,73,-99.99,,,-99.99,,2013-03-13 05:32:00,
2013-03-13 01:42:00,31.0,23.0,29.87,SSW,205,3.0,-999.0,73,-99.99,,,-99.99,,2013-03-13 05:42:00,
2013-03-13 01:52:00,31.0,23.0,29.87,SSW,208,2.0,-999.0,73,-99.99,,,-99.99,,2013-03-13 05:52:00,
2013-03-13 02:02:00,31.0,23.0,29.87,SSW,208,2.0,-999.0,73,-99.99,,,-99.99,,2013-03-13 06:02:00,
2013-03-13 02:13:00,31.0,23.0,29.87,SSW,208,2.0,-999.0,73,-99.99,,,-99.99,,2013-03-13 06:13:00,
2013-03-13 02:23:00,31.0,24.0,29.87,South,169,0.0,-999.0,74,-99.99,,,-99.99,,2013-03-13 06:23:00,
2013-03-13 02:32:00,31.0,24.0,29.86,South,181,1.0,-999.0,74,-99.99,,,-99.99,,2013-03-13 06:32:00,
2013-03-13 02:42:00,31.0,24.0,29.86,South,181,1.0,-999.0,74,-99.99,,,-99.99,,2013-03-13 06:42:00,
2013-03-13 02:52:00,31.0,23.0,29.86,SSW,196,2.0,-999.0,73,-99.99,,,-99.99,,2013-03-13 06:52:00,
2013-03-13 03:03:00,31.0,23.0,29.86,SW,230,2.0,-999.0,73,-99.99,,,-99.99,,2013-03-13 07:03:00,
2013-03-13 03:12:00,31.0,23.0,29.86,SW,230,2.0,-999.0,73,-99.99,,,-99.99,,2013-03-13 07:12:00,
2013-03-13 03:23:00,31.0,23.0,29.85,SW,222,2.0,-999.0,72,-99.99,,,-99.99,,2013-03-13 07:23:00,
2013-03-13 03:33:00,31.0,23.0,29.85,SW,223,4.0,-999.0,71,-99.99,,,-99.99,,2013-03-13 07:33:00,
2013-03-13 03:42:00,31.0,23.0,29.85,SW,223,4.0,-999.0,71,-99.99,,,-99.99,,2013-03-13 07:42:00,
2013-03-13 03:52:00,30.0,22.0,29.84,SW,217,2.0,-999.0,72,-99.99,,,-99.99,,2013-03-13 07:52:00,
2013-03-13 04:03:00,30.0,22.0,29.83,SSW,202,1.0,-999.0,73,-99.99,,,-99.99,,2013-03-13 08:03:00,
2013-03-13 04:12:00,30.0,22.0,29.83,SSW,202,1.0,-999.0,73,-99.99,,,-99.99,,2013-03-13 08:12:00,
2013-03-13 04:23:00,29.0,22.0,29.83,SSW,202,0.0,-999.0,74,-99.99,,,-99.99,,2013-03-13 08:23:00,
2013-03-13 04:32:00,29.0,22.0,29.83,SSW,202,0.0,-999.0,75,-99.99,,,-99.99,,2013-03-13 08:32:00,
2013-03-13 04:43:00,29.0,22.0,29.83,SSW,202,0.0,-999.0,75,-99.99,,,-99.99,,2013-03-13 08:43:00,
2013-03-13 04:53:00,29.0,23.0,29.82,SSW,198,0.0,-999.0,77,-99.99,,,-99.99,,2013-03-13 08:53:00,
2013-03-13 05:02:00,28.0,22.0,29.82,SSE,160,1.0,-999.0,78,-99.99,,,-99.99,,2013-03-13 09:02:00,
2013-03-13 05:12:00,28.0,22.0,29.82,SSE,160,1.0,-999.0,78,-99.99,,,-99.99,,2013-03-13 09:12:00,
2013-03-13 05:22:00,28.0,22.0,29.82,South,191,0.0,-999.0,78,-99.99,,,-99.99,,2013-03-13 09:22:00,
2013-03-13 05:32:00,28.0,22.0,29.82,SSE,162,1.0,-999.0,79,-99.99,,,-99.99,,2013-03-13 09:32:00,
2013-03-13 05:42:00,28.0,22.0,29.82,SSE,162,1.0,-999.0,79,-99.99,,,-99.99,,2013-03-13 09:42:00,
2013-03-13 05:52:00,29.0,23.0,29.81,SSW,200,1.0,-999.0,79,-99.99,,,-99.99,,2013-03-13 09:52:00,
2013-03-13 06:02:00,29.0,24.0,29.82,South,185,1.0,-999.0,80,-99.99,,,-99.99,,2013-03-13 10:02:00,
2013-03-13 06:12:00,29.0,24.0,29.82,South,185,1.0,-999.0,80,-99.99,,,-99.99,,2013-03-13 10:12:00,
2013-03-13 06:22:00,29.0,24.0,29.81,SSW,209,3.0,-999.0,81,-99.99,,,-99.99,,2013-03-13 10:22:00,
2013-03-13 06:32:00,29.0,24.0,29.81,WSW,239,4.0,-999.0,82,-99.99,,,-99.99,,2013-03-13 10:32:00,
2013-03-13 06:42:00,29.0,24.0,29.81,WSW,239,4.0,-999.0,82,-99.99,,,-99.99,,2013-03-13 10:42:00,
2013-03-13 06:52:00,29.0,25.0,29.82,SSW,209,4.0,-999.0,86,-99.99,,,-99.99,,2013-03-13 10:52:00,
2013-03-13 07:02:00,29.0,26.0,29.82,SSW,212,2.0,-999.0,88,-99.99,,,-99.99,,2013-03-13 11:02:00,
2013-03-13 07:12:00,29.0,26.0,29.82,SSW,212,2.0,-999.0,88,-99.99,,,-99.99,,2013-03-13 11:12:00,
2013-03-13 07:22:00,29.0,26.0,29.82,SW,222,2.0,-999.0,89,-99.99,,,-99.99,,2013-03-13 11:22:00,
2013-03-13 07:32:00,29.0,26.0,29.81,SW,234,2.0,-999.0,89,-99.99,,,-99.99,,2013-03-13 11:32:00,
2013-03-13 07:42:00,29.0,26.0,29.81,SW,234,2.0,-999.0,89,-99.99,,,-99.99,,2013-03-13 11:42:00,
2013-03-13 07:52:00,29.0,26.0,29.82,SSW,202,3.0,-999.0,88,-99.99,,,-99.99,,2013-03-13 11:52:00,
2013-03-13 08:02:00,29.0,26.0,29.82,WSW,239,3.0,-999.0,87,-99.99,,,-99.99,,2013-03-13 12:02:00,
2013-03-13 08:12:00,29.0,26.0,29.82,WSW,239,3.0,-999.0,87,-99.99,,,-99.99,,2013-03-13 12:12:00,
2013-03-13 08:22:00,29.0,25.0,29.82,SW,217,3.0,-999.0,85,-99.99,,,-99.99,,2013-03-13 12:22:00,
2013-03-13 08:32:00,29.0,25.0,29.82,SSW,195,2.0,-999.0,85,-99.99,,,-99.99,,2013-03-13 12:32:00,
2013-03-13 08:42:00,29.0,25.0,29.82,SSW,195,2.0,-999.0,85,-99.99,,,-99.99,,2013-03-13 12:42:00,
2013-03-13 08:52:00,29.0,25.0,29.82,SW,224,4.0,-999.0,84,-99.99,,,-99.99,,2013-03-13 12:52:00,
2013-03-13 09:02:00,29.0,25.0,29.82,SSW,196,3.0,-999.0,83,-99.99,,,-99.99,,2013-03-13 13:02:00,
2013-03-13 09:22:00,29.0,24.0,29.82,South,184,4.0,-999.0,82,-99.99,,,-99.99,,2013-03-13 13:22:00,
2013-03-13 09:33:00,30.0,25.0,29.82,SW,226,4.0,-999.0,81,-99.99,,,-99.99,,2013-03-13 13:33:00,
2013-03-13 09:43:00,30.0,25.0,29.82,SW,226,4.0,-999.0,81,-99.99,,,-99.99,,2013-03-13 13:43:00,
2013-03-13 09:52:00,30.0,25.0,29.83,WSW,237,6.0,-999.0,80,-99.99,,,-99.99,,2013-03-13 13:52:00,
2013-03-13 10:03:00,30.0,24.0,29.83,SSW,205,4.0,-999.0,79,-99.99,,,-99.99,,2013-03-13 14:03:00,
2013-03-13 10:12:00,30.0,24.0,29.83,SSW,205,4.0,-999.0,79,-99.99,,,-99.99,,2013-03-13 14:12:00,
2013-03-13 10:22:00,30.0,23.0,29.83,SW,220,5.0,-999.0,76,-99.99,,,-99.99,,2013-03-13 14:22:00,
2013-03-13 10:33:00,30.0,22.0,29.83,West,274,5.0,-999.0,73,-99.99,,,-99.99,,2013-03-13 14:33:00,
2013-03-13 10:42:00,30.0,22.0,29.83,West,274,5.0,-999.0,73,-99.99,,,-99.99,,2013-03-13 14:42:00,
2013-03-13 10:52:00,30.0,22.0,29.83,SSW,205,6.0,-999.0,73,-99.99,,,-99.99,,2013-03-13 14:52:00,
2013-03-13 11:03:00,30.0,23.0,29.84,South,179,6.0,-999.0,74,-99.99,,,-99.99,,2013-03-13 15:03:00,
2013-03-13 11:12:00,30.0,23.0,29.84,South,179,6.0,-999.0,74,-99.99,,,-99.99,,2013-03-13 15:12:00,
2013-03-13 11:22:00,31.0,22.0,29.84,West,277,5.0,-999.0,69,-99.99,,,-99.99,,2013-03-13 15:22:00,
2013-03-13 11:32:00,32.0,22.0,29.84,SW,227,5.0,-999.0,66,-99.99,,,-99.99,,2013-03-13 15:32:00,
2013-03-13 11:43:00,32.0,22.0,29.84,SW,227,5.0,-999.0,66,-99.99,,,-99.99,,2013-03-13 15:43:00,
2013-03-13 11:52:00,32.0,20.0,29.85,SW,227,7.0,-999.0,61,-99.99,,,-99.99,,2013-03-13 15:52:00,
2013-03-13 12:03:00,31.0,20.0,29.85,WSW,250,7.0,-999.0,63,-99.99,,,-99.99,,2013-03-13 16:03:00,
2013-03-13 12:12:00,31.0,20.0,29.85,WSW,250,7.0,-999.0,63,-99.99,,,-99.99,,2013-03-13 16:12:00,
2013-03-13 12:22:00,33.0,22.0,29.85,West,261,4.0,-999.0,64,-99.99,,,-99.99,,2013-03-13 16:22:00,
2013-03-13 12:32:00,32.0,21.0,29.85,SSW,210,4.0,-999.0,63,-99.99,,,-99.99,,2013-03-13 16:32:00,
2013-03-13 12:42:00,32.0,21.0,29.85,SSW,210,4.0,-999.0,63,-99.99,,,-99.99,,2013-03-13 16:42:00,
2013-03-13 12:52:00,31.0,22.0,29.86,West,261,5.0,-999.0,68,-99.99,,,-99.99,,2013-03-13 16:52:00,
2013-03-13 13:03:00,28.0,21.0,29.88,NW,309,8.0,-999.0,74,-99.99,,,-99.99,,2013-03-13 17:03:00,
2013-03-13 13:12:00,28.0,21.0,29.88,NW,309,8.0,-999.0,74,-99.99,,,-99.99,,2013-03-13 17:12:00,
2013-03-13 13:23:00,27.0,23.0,29.88,WSW,239,3.0,-999.0,85,-99.99,,,-99.99,,2013-03-13 17:23:00,
2013-03-13 13:33:00,28.0,24.0,29.88,SSW,209,3.0,-999.0,85,-99.99,,,-99.99,,2013-03-13 17:33:00,
2013-03-13 13:42:00,28.0,24.0,29.88,SSW,209,3.0,-999.0,85,-99.99,,,-99.99,,2013-03-13 17:42:00,
2013-03-13 13:53:00,29.0,24.0,29.88,WNW,287,5.0,-999.0,81,-99.99,,,-99.99,,2013-03-13 17:53:00,
2013-03-13 14:03:00,30.0,23.0,29.88,WNW,301,4.0,-999.0,75,-99.99,,,-99.99,,2013-03-13 18:03:00,
2013-03-13 14:12:00,30.0,23.0,29.88,WNW,301,4.0,-999.0,75,-99.99,,,-99.99,,2013-03-13 18:12:00,
2013-03-13 14:22:00,28.0,25.0,29.89,NW,308,3.0,-999.0,87,-99.99,,,-99.99,,2013-03-13 18:22:00,
2013-03-13 14:33:00,28.0,24.0,29.89,WSW,256,4.0,-999.0,85,-99.99,,,-99.99,,2013-03-13 18:33:00,
2013-03-13 14:42:00,28.0,24.0,29.89,WSW,256,4.0,-999.0,85,-99.99,,,-99.99,,2013-03-13 18:42:00,
2013-03-13 14:52:00,29.0,22.0,29.89,WNW,282,6.0,-999.0,76,-99.99,,,-99.99,,2013-03-13 18:52:00,
2013-03-13 15:03:00,27.0,21.0,29.90,West,280,10.0,-999.0,78,-99.99,,,-99.99,,2013-03-13 19:03:00,
2013-03-13 15:12:00,27.0,21.0,29.90,West,280,10.0,-999.0,78,-99.99,,,-99.99,,2013-03-13 19:12:00,
2013-03-13 15:22:00,26.0,21.0,29.91,West,274,7.0,-999.0,82,-99.99,,,-99.99,,2013-03-13 19:22:00,
2013-03-13 15:32:00,27.0,20.0,29.89,SSE,162,6.0,-999.0,75,-99.99,,,-99.99,,2013-03-13 19:32:00,
2013-03-13 15:43:00,27.0,20.0,29.89,SSE,162,6.0,-999.0,75,-99.99,,,-99.99,,2013-03-13 19:43:00,
2013-03-13 15:52:00,28.0,18.0,29.90,West,267,7.0,-999.0,65,-99.99,,,-99.99,,2013-03-13 19:52:00,
2013-03-13 16:02:00,28.0,17.0,29.91,West,275,7.0,-999.0,64,-99.99,,,-99.99,,2013-03-13 20:02:00,
2013-03-13 16:12:00,28.0,17.0,29.91,West,275,7.0,-999.0,64,-99.99,,,-99.99,,2013-03-13 20:12:00,
2013-03-13 16:23:00,28.0,16.0,29.91,NW,305,8.0,-999.0,60,-99.99,,,-99.99,,2013-03-13 20:23:00,
2013-03-13 16:32:00,27.0,15.0,29.92,NNW,330,8.0,-999.0,59,-99.99,,,-99.99,,2013-03-13 20:32:00,
2013-03-13 16:42:00,27.0,15.0,29.92,NNW,330,8.0,-999.0,59,-99.99,,,-99.99,,2013-03-13 20:42:00,
2013-03-13 16:52:00,27.0,14.0,29.92,NNW,330,7.0,-999.0,57,-99.99,,,-99.99,,2013-03-13 20:52:00,
2013-03-13 17:02:00,27.0,15.0,29.93,SW,226,7.0,-999.0,60,-99.99,,,-99.99,,2013-03-13 21:02:00,
2013-03-13 17:12:00,27.0,15.0,29.93,SW,226,7.0,-999.0,60,-99.99,,,-99.99,,2013-03-13 21:12:00,
2013-03-13 17:22:00,26.0,17.0,29.94,NW,305,5.0,-999.0,69,-99.99,,,-99.99,,2013-03-13 21:22:00,
2013-03-13 17:33:00,26.0,18.0,29.94,NW,305,4.0,-999.0,70,-99.99,,,-99.99,,2013-03-13 21:33:00,
2013-03-13 17:42:00,26.0,18.0,29.94,NW,305,4.0,-999.0,70,-99.99,,,-99.99,,2013-03-13 21:42:00,
2013-03-13 17:52:00,26.0,19.0,29.95,West,278,5.0,-999.0,74,-99.99,,,-99.99,,2013-03-13 21:52:00,
2013-03-13 18:02:00,25.0,21.0,29.95,SW,232,3.0,-999.0,83,-99.99,,,-99.99,,2013-03-13 22:02:00,
2013-03-13 18:12:00,25.0,21.0,29.95,SW,232,3.0,-999.0,83,-99.99,,,-99.99,,2013-03-13 22:12:00,
2013-03-13 18:22:00,25.0,21.0,29.95,SW,232,3.0,-999.0,83,-99.99,,,-99.99,,2013-03-13 22:22:00,
2013-03-13 18:32:00,24.0,20.0,29.96,NNW,328,6.0,-999.0,85,-99.99,,,-99.99,,2013-03-13 22:32:00,
2013-03-13 18:42:00,24.0,20.0,29.96,NNW,328,6.0,-999.0,85,-99.99,,,-99.99,,2013-03-13 22:42:00,
2013-03-13 18:52:00,24.0,20.0,29.96,West,260,5.0,-999.0,84,-99.99,,,-99.99,,2013-03-13 22:52:00,
2013-03-13 19:02:00,24.0,19.0,29.97,NW,318,6.0,-999.0,82,-99.99,,,-99.99,,2013-03-13 23:02:00,
2013-03-13 19:12:00,24.0,19.0,29.97,NW,318,6.0,-999.0,82,-99.99,,,-99.99,,2013-03-13 23:12:00,
2013-03-13 19:22:00,24.0,19.0,29.97,WSW,246,3.0,-999.0,81,-99.99,,,-99.99,,2013-03-13 23:22:00,
2013-03-13 19:32:00,24.0,19.0,29.97,WSW,246,3.0,-999.0,81,-99.99,,,-99.99,,2013-03-13 23:32:00,
2013-03-13 19:42:00,24.0,19.0,29.97,WSW,246,3.0,-999.0,81,-99.99,,,-99.99,,2013-03-13 23:42:00,
2013-03-13 19:52:00,24.0,20.0,29.98,WNW,287,4.0,-999.0,84,-99.99,,,-99.99,,2013-03-13 23:52:00,
2013-03-13 20:02:00,24.0,20.0,29.98,WNW,291,3.0,-999.0,85,-99.99,,,-99.99,,2013-03-14 00:02:00,
2013-03-13 20:13:00,24.0,20.0,29.98,WNW,291,3.0,-999.0,85,-99.99,,,-99.99,,2013-03-14 00:13:00,
2013-03-13 20:22:00,24.0,20.0,29.98,SW,217,2.0,-999.0,84,-99.99,,,-99.99,,2013-03-14 00:22:00,
2013-03-13 20:32:00,24.0,20.0,29.99,West,263,4.0,-999.0,83,-99.99,,,-99.99,,2013-03-14 00:32:00,
2013-03-13 20:42:00,24.0,20.0,29.99,West,263,4.0,-999.0,83,-99.99,,,-99.99,,2013-03-14 00:42:00,
2013-03-13 20:52:00,24.0,20.0,29.99,WNW,282,4.0,-999.0,85,-99.99,,,-99.99,,2013-03-14 00:52:00,
2013-03-13 21:03:00,24.0,21.0,30.00,WNW,299,4.0,-999.0,87,-99.99,,,-99.99,,2013-03-14 01:03:00,
2013-03-13 21:12:00,24.0,21.0,30.00,WNW,299,4.0,-999.0,87,-99.99,,,-99.99,,2013-03-14 01:12:00,
2013-03-13 21:23:00,24.0,20.0,30.00,NW,323,3.0,-999.0,85,-99.99,,,-99.99,,2013-03-14 01:23:00,
2013-03-13 21:32:00,24.0,20.0,30.01,WNW,282,1.0,-999.0,83,-99.99,,,-99.99,,2013-03-14 01:32:00,
2013-03-13 21:42:00,24.0,20.0,30.01,WNW,282,1.0,-999.0,83,-99.99,,,-99.99,,2013-03-14 01:42:00,
2013-03-13 21:52:00,24.0,20.0,30.01,NW,318,2.0,-999.0,84,-99.99,,,-99.99,,2013-03-14 01:52:00,
2013-03-13 22:02:00,24.0,20.0,30.01,WSW,247,1.0,-999.0,84,-99.99,,,-99.99,,2013-03-14 02:02:00,
2013-03-13 22:12:00,24.0,20.0,30.01,WSW,247,1.0,-999.0,84,-99.99,,,-99.99,,2013-03-14 02:12:00,
2013-03-13 22:22:00,24.0,20.0,30.01,WSW,257,2.0,-999.0,85,-99.99,,,-99.99,,2013-03-14 02:22:00,
2013-03-13 22:33:00,24.0,20.0,30.01,WSW,243,3.0,-999.0,85,-99.99,,,-99.99,,2013-03-14 02:33:00,
2013-03-13 22:42:00,24.0,20.0,30.01,WSW,243,3.0,-999.0,85,-99.99,,,-99.99,,2013-03-14 02:42:00,
2013-03-13 22:51:00,24.0,20.0,30.01,WSW,243,3.0,-999.0,85,-99.99,,,-99.99,,2013-03-14 02:51:00,
2013-03-13 23:02:00,25.0,21.0,30.01,SW,215,3.0,-999.0,84,-99.99,,,-99.99,,2013-03-14 03:02:00,
2013-03-13 23:12:00,25.0,21.0,30.01,SW,215,3.0,-999.0,84,-99.99,,,-99.99,,2013-03-14 03:12:00,
2013-03-13 23:23:00,25.0,20.0,30.01,SW,215,3.0,-999.0,81,-99.99,,,-99.99,,2013-03-14 03:23:00,
2013-03-13 23:32:00,25.0,19.0,30.01,NW,304,3.0,-999.0,79,-99.99,,,-99.99,,2013-03-14 03:32:00,
2013-03-13 23:42:00,25.0,19.0,30.01,NW,304,3.0,-999.0,79,-99.99,,,-99.99,,2013-03-14 03:42:00,
2013-03-13 23:52:00,25.0,19.0,30.01,NW,304,3.0,-999.0,79,-99.99,,,-99.99,,2013-03-14 03:52:00,